This demonstration page uses our WeatherBlox Daily Observations layout. Learn more.

Left ArrowRight Arrow

Hourly Observations for May 12, 2017

Temp ( °F °C ) Dew Point ( °F °C ) Humidity (%) Winds ( mph kmh ) Pressure ( in mb ) Visibility ( mi km ) Precip ( " mm )
12:15 am 00:15 Clear 48 9 39 4 71 71 NW 7 11 30.18 1022 10 16 0.00 0.00
12:35 am 00:35 Clear 48 9 39 4 71 71 NW 7 11 30.18 1022 10 16 0.00 0.00
12:55 am 00:55 Clear 50 10 39 4 67 67 NW 7 11 30.15 1021 10 16 0.00 0.00
1:15 am 01:15 Clear 50 10 39 4 67 67 NW 7 11 30.15 1021 10 16 0.00 0.00
1:35 am 01:35 Clear 48 9 39 4 71 71 NW 8 13 30.18 1022 10 16 0.00 0.00
1:55 am 01:55 Clear 48 9 37 3 66 66 NW 8 13 30.18 1022 10 16 0.00 0.00
2:15 am 02:15 Clear 48 9 37 3 66 66 NW 7 11 30.15 1021 10 16 0.00 0.00
2:35 am 02:35 Clear 48 9 37 3 66 66 NW 6 9 30.15 1021 10 16 0.00 0.00
2:55 am 02:55 Clear 48 9 37 3 66 66 NW 6 9 30.15 1021 10 16 0.00 0.00
3:15 am 03:15 Clear 48 9 37 3 66 66 NW 8 13 30.15 1021 10 16 0.00 0.00
3:35 am 03:35 Clear 46 8 37 3 71 71 NW 8 13 30.18 1022 10 16 0.00 0.00
3:55 am 03:55 Clear 46 8 37 3 71 71 WNW 7 11 30.18 1022 10 16 0.00 0.00
4:15 am 04:15 Clear 46 8 37 3 71 71 NW 8 13 30.18 1022 10 16 0.00 0.00
4:35 am 04:35 Clear 45 7 37 3 76 76 WNW 7 11 30.15 1021 10 16 0.00 0.00
4:55 am 04:55 Clear 45 7 37 3 76 76 NW 8 13 30.15 1021 10 16 0.00 0.00
5:15 am 05:15 Clear 46 8 37 3 71 71 NW 8 13 30.15 1021 10 16 0.00 0.00
5:35 am 05:35 Clear 45 7 37 3 76 76 WNW 7 11 30.15 1021 10 16 0.00 0.00
5:55 am 05:55 Clear 43 6 36 2 76 76 WNW 8 13 30.15 1021 10 16 0.00 0.00
6:15 am 06:15 Clear 43 6 36 2 76 76 WNW 9 15 30.15 1021 10 16 0.00 0.00
6:35 am 06:35 Sunny 43 6 36 2 76 76 WNW 8 13 30.15 1021 10 16 0.00 0.00
6:55 am 06:55 Sunny 45 7 36 2 71 71 NW 7 11 30.15 1021 10 16 0.00 0.00
7:15 am 07:15 Sunny 45 7 37 3 76 76 NW 7 11 30.15 1021 10 16 0.00 0.00
7:35 am 07:35 Sunny 46 8 37 3 71 71 WNW 8 13 30.15 1021 10 16 0.00 0.00
7:55 am 07:55 Sunny 48 9 39 4 71 71 WNW 7 11 30.15 1021 10 16 0.00 0.00
8:15 am 08:15 Sunny 52 11 39 4 62 62 NW 6 9 30.12 1020 10 16 0.00 0.00
8:35 am 08:35 Sunny 54 12 39 4 58 58 NW 6 9 30.12 1020 10 16 0.00 0.00
8:55 am 08:55 Sunny 55 13 41 5 59 59 WNW 5 7 30.09 1019 10 16 0.00 0.00
9:15 am 09:15 Sunny 57 14 43 6 59 59 WNW 3 6 30.09 1019 10 16 0.00 0.00
9:35 am 09:35 Sunny 59 15 41 5 51 51 WNW 3 6 30.09 1019 10 16 0.00 0.00
9:55 am 09:55 Sunny 61 16 39 4 45 45 NW 5 7 30.09 1019 10 16 0.00 0.00
10:15 am 10:15 Sunny 63 17 37 3 39 39 Calm 30.06 1018 10 16 0.00 0.00
10:35 am 10:35 Sunny 63 17 39 4 42 42 N 5 7 30.06 1018 10 16 0.00 0.00
10:55 am 10:55 Sunny 64 18 37 3 37 37 Calm 30.06 1018 10 16 0.00 0.00
11:15 am 11:15 Sunny 66 19 39 4 37 37 Calm 30.06 1018 10 16 0.00 0.00
11:35 am 11:35 Sunny 66 19 37 3 35 35 Calm 30.06 1018 10 16 0.00 0.00
11:55 am 11:55 Sunny 68 20 37 3 33 33 Calm 30.06 1018 10 16 0.00 0.00
12:15 pm 12:15 Sunny 68 20 37 3 33 33 Calm 30.06 1018 10 16 0.00 0.00
12:35 pm 12:35 Sunny 70 21 39 4 33 33 Calm 30.03 1017 10 16 0.00 0.00
12:55 pm 12:55 Sunny 70 21 37 3 31 31 Calm 30.03 1017 10 16 0.00 0.00
1:15 pm 13:15 Sunny 70 21 39 4 33 33 Calm 30.00 1016 10 16 0.00 0.00
1:35 pm 13:35 Sunny 72 22 39 4 31 31 E 3 6 30.00 1016 10 16 0.00 0.00
1:55 pm 13:55 Sunny 72 22 39 4 31 31 ESE 7 11 30.00 1016 10 16 0.00 0.00
2:15 pm 14:15 Sunny 72 22 39 4 31 31 SE 9 15 30.00 1016 10 16 0.00 0.00
2:35 pm 14:35 Sunny 73 23 39 4 29 29 ESE 10 17 30.00 1016 10 16 0.00 0.00
2:55 pm 14:55 Sunny 72 22 39 4 31 31 SE 6 9 30.00 1016 10 16 0.00 0.00
3:15 pm 15:15 Sunny 73 23 39 4 29 29 SSE 8 13 29.97 1015 10 16 0.00 0.00
3:35 pm 15:35 Sunny 72 22 37 3 29 29 ESE 8 13 29.97 1015 10 16 0.00 0.00
3:55 pm 15:55 Sunny 73 23 39 4 29 29 SE 3 6 29.97 1015 10 16 0.00 0.00
4:15 pm 16:15 Sunny 73 23 39 4 29 29 SE 7 11 29.97 1015 10 16 0.00 0.00
4:35 pm 16:35 Sunny 73 23 39 4 29 29 E 7 11 29.94 1014 10 16 0.00 0.00
4:55 pm 16:55 Sunny 73 23 39 4 29 29 ESE 5 7 29.94 1014 10 16 0.00 0.00
5:15 pm 17:15 Sunny 73 23 39 4 29 29 E 7 11 29.94 1014 10 16 0.00 0.00
5:35 pm 17:35 Sunny 73 23 37 3 27 27 ESE 9 15 29.94 1014 10 16 0.00 0.00
5:55 pm 17:55 Sunny 73 23 37 3 27 27 SE 8 13 29.94 1014 10 16 0.00 0.00
6:15 pm 18:15 Sunny 73 23 39 4 29 29 SSE 5 7 29.94 1014 10 16 0.00 0.00
6:35 pm 18:35 Sunny 73 23 37 3 27 27 ESE 9 15 29.91 1013 10 16 0.00 0.00
6:55 pm 18:55 Sunny 72 22 37 3 29 29 SE 6 9 29.91 1013 10 16 0.00 0.00
7:15 pm 19:15 Sunny 72 22 37 3 29 29 ESE 7 11 29.91 1013 10 16 0.00 0.00
7:35 pm 19:35 Sunny 72 22 37 3 29 29 SE 12 19 29.91 1013 10 16 0.00 0.00
7:55 pm 19:55 Sunny 70 21 37 3 31 31 SE 8 13 29.91 1013 10 16 0.00 0.00
8:15 pm 20:15 Sunny 68 20 37 3 33 33 SSE 8 13 29.91 1013 10 16 0.00 0.00
8:35 pm 20:35 Sunny 66 19 37 3 35 35 SSE 7 11 29.94 1014 10 16 0.00 0.00
8:55 pm 20:55 Clear 63 17 39 4 42 42 SE 10 17 29.94 1014 10 16 0.00 0.00
9:15 pm 21:15 Clear 63 17 39 4 42 42 SSE 10 17 29.94 1014 10 16 0.00 0.00
9:35 pm 21:35 Clear 61 16 41 5 48 48 SSE 9 15 29.94 1014 10 16 0.00 0.00
9:55 pm 21:55 Clear 61 16 41 5 48 48 SSE 9 15 29.94 1014 10 16 0.00 0.00
10:15 pm 22:15 Clear 61 16 39 4 45 45 SSE 9 15 29.97 1015 10 16 0.00 0.00
10:35 pm 22:35 Clear 61 16 39 4 45 45 SSE 12 19 29.97 1015 10 16 0.00 0.00
10:55 pm 22:55 Clear 59 15 39 4 48 48 SSE 9 15 30.00 1016 10 16 0.00 0.00
11:15 pm 23:15 Clear 57 14 39 4 51 51 SSE 10 17 30.00 1016 10 16 0.00 0.00
11:35 pm 23:35 Clear 57 14 39 4 51 51 SSE 9 15 30.00 1016 10 16 0.00 0.00
11:55 pm 23:55 Clear 55 13 39 4 55 55 SSE 9 15 29.97 1015 10 16 0.00 0.00

Powered by AerisWeather